カタログに戻る

FENGYUN 1C DEB

運用中SSO
NORAD 32113·DEBRIS·🇨🇳 China

打ち上げ May 10, 1999 から Taiyuan Satellite Launch Center

Loading…

次のパス (今後24時間)

TLE

最新Source: Space-Track

元期: Sep 13, 2026, 19:47 UTC

1 32113U 99025CRF 26256.82449305  .00000837  00000-0  51586-3 0  9997
2 32113  99.0008 290.4815 0236661 192.3490 167.1808 13.95159527667219

AllMySatでFENGYUN 1C DEBをリアルタイム追跡

Download on the App Store